When you browse on this site, cookies collect data to enhance your experience and personalize the content and advertising you see.
Visit our Privacy Policy to learn more. By continuing to use the site, you agree to this use of cookies and data.
  • Em Portugal
  • Lista de países
  • Para 7 dias
  • Temperatura da água
  • Mapa do tempo
  • Widgets de tempo
  • user-avatar
    Iniciar Sessão

    Previsão horária em Pecz

    Hoje, 23 Setembro, Segunda-feira

    Tempo Temperatura Precipitação Vento Pressão Humidade
    00:00 +17°C° 0 mm 2 m/s 742 mmHg 47%
    01:00 +17°C° 0 mm 2 m/s 742 mmHg 50%
    02:00 +17°C° 0 mm 2 m/s 742 mmHg 52%
    03:00 +16°C° 0 mm 2 m/s 741 mmHg 54%
    04:00 +16°C° 0 mm 3 m/s 741 mmHg 55%
    05:00 +16°C° 0 mm 3 m/s 741 mmHg 57%
    06:00 +16°C° 0 mm 3 m/s 741 mmHg 59%
    07:00 +14°C° 0 mm 3 m/s 741 mmHg 60%
    08:00 +17°C° 0 mm 3 m/s 741 mmHg 59%
    09:00 +18°C° 0 mm 2 m/s 741 mmHg 58%
    10:00 +19°C° 0 mm 2 m/s 741 mmHg 57%
    11:00 +20°C° 0 mm 2 m/s 741 mmHg 56%
    12:00 +21°C° 0 mm 2 m/s 741 mmHg 54%
    13:00 +23°C° 0 mm 2 m/s 741 mmHg 52%
    14:00 +21°C° 0 mm 3 m/s 741 mmHg 52%
    15:00 +20°C° 0 mm 3 m/s 740 mmHg 52%
    16:00 +20°C° 0 mm 4 m/s 740 mmHg 53%
    17:00 +18°C° 0 mm 4 m/s 740 mmHg 59%
    18:00 +17°C° 0 mm 4 m/s 741 mmHg 64%
    19:00 +14°C° 0 mm 4 m/s 741 mmHg 70%
    20:00 +13°C° 0 mm 4 m/s 741 mmHg 71%
    21:00 +13°C° 0 mm 3 m/s 741 mmHg 73%
    22:00 +12°C° 0 mm 3 m/s 741 mmHg 74%
    23:00 +12°C° 0 mm 3 m/s 741 mmHg 74%

    Amanhã, 24 Setembro, Terça-feira

    Tempo Temperatura Precipitação Vento Pressão Humidade
    00:00 +11°C° 0 mm 3 m/s 741 mmHg 74%
    01:00 +11°C° 0 mm 3 m/s 741 mmHg 75%
    02:00 +11°C° 0 mm 3 m/s 741 mmHg 76%
    03:00 +11°C° 0 mm 3 m/s 741 mmHg 78%
    04:00 +10°C° 0 mm 2 m/s 741 mmHg 80%
    05:00 +12°C° 0 mm 2 m/s 741 mmHg 79%
    06:00 +13°C° 0 mm 2 m/s 741 mmHg 78%
    07:00 +14°C° 0 mm 2 m/s 742 mmHg 76%
    08:00 +15°C° 0 mm 2 m/s 742 mmHg 70%
    09:00 +16°C° 0 mm 2 m/s 742 mmHg 64%
    10:00 +18°C° 0 mm 2 m/s 742 mmHg 58%
    11:00 +19°C° 0 mm 2 m/s 742 mmHg 54%
    12:00 +20°C° 0 mm 2 m/s 742 mmHg 50%
    13:00 +21°C° 0 mm 2 m/s 742 mmHg 46%
    14:00 +22°C° 0 mm 1 m/s 742 mmHg 45%
    15:00 +22°C° 0 mm 1 m/s 741 mmHg 45%
    16:00 +22°C° 0 mm 1 m/s 741 mmHg 44%
    17:00 +20°C° 0 mm 1 m/s 741 mmHg 51%
    18:00 +19°C° 0 mm 1 m/s 741 mmHg 57%
    19:00 +16°C° 0 mm 1 m/s 741 mmHg 64%
    20:00 +15°C° 0 mm 1 m/s 741 mmHg 69%
    21:00 +15°C° 0 mm 1 m/s 741 mmHg 75%
    22:00 +14°C° 0 mm 1 m/s 741 mmHg 80%
    23:00 +14°C° 0 mm 1 m/s 741 mmHg 83%

    Depois de amanhã, 25 Setembro, Quarta-feira

    Tempo Temperatura Precipitação Vento Pressão Humidade
    00:00 +14°C° 0 mm 1 m/s 741 mmHg 85%
    01:00 +13°C° 0 mm 1 m/s 741 mmHg 88%
    02:00 +13°C° 0 mm 1 m/s 741 mmHg 89%
    03:00 +13°C° 0 mm 1 m/s 740 mmHg 90%
    04:00 +12°C° 0 mm 1 m/s 740 mmHg 92%
    05:00 +13°C° 0 mm 1 m/s 740 mmHg 89%
    06:00 +13°C° 0 mm 1 m/s 740 mmHg 87%
    07:00 +14°C° 0 mm 1 m/s 740 mmHg 85%
    08:00 +16°C° 0 mm 1 m/s 740 mmHg 76%
    09:00 +19°C° 0 mm 1 m/s 741 mmHg 66%
    10:00 +20°C° 0 mm 2 m/s 741 mmHg 57%
    11:00 +22°C° 0 mm 1 m/s 740 mmHg 52%
    12:00 +23°C° 0 mm 1 m/s 740 mmHg 47%
    13:00 +24°C° 0 mm 1 m/s 740 mmHg 43%
    14:00 +24°C° 0 mm 1 m/s 739 mmHg 43%
    15:00 +24°C° 0 mm 1 m/s 739 mmHg 43%
    16:00 +24°C° 0 mm 1 m/s 739 mmHg 44%
    17:00 +22°C° 0 mm 1 m/s 739 mmHg 49%
    18:00 +20°C° 0 mm 1 m/s 739 mmHg 55%
    19:00 +19°C° 0 mm 1 m/s 740 mmHg 60%
    20:00 +18°C° 0 mm 1 m/s 740 mmHg 63%
    21:00 +16°C° 0 mm 1 m/s 740 mmHg 66%
    22:00 +16°C° 0 mm 1 m/s 740 mmHg 69%
    23:00 +16°C° 0 mm 1 m/s 740 mmHg 71%

    26 Setembro, Quinta-feira

    Tempo Temperatura Precipitação Vento Pressão Humidade
    00:00 +15°C° 0 mm 1 m/s 740 mmHg 72%
    01:00 +15°C° 0 mm 1 m/s 740 mmHg 74%
    02:00 +15°C° 0 mm 2 m/s 740 mmHg 75%
    03:00 +15°C° 0 mm 2 m/s 740 mmHg 77%
    04:00 +14°C° 0 mm 3 m/s 741 mmHg 78%
    05:00 +14°C° 0.8 mm 4 m/s 741 mmHg 82%
    06:00 +13°C° 0.8 mm 4 m/s 741 mmHg 86%
    07:00 +13°C° 0.8 mm 5 m/s 742 mmHg 90%
    08:00 +13°C° 0.3 mm 4 m/s 742 mmHg 89%
    09:00 +13°C° 0.3 mm 4 m/s 743 mmHg 88%
    10:00 +13°C° 0.3 mm 3 m/s 743 mmHg 87%
    11:00 +14°C° 0 mm 3 m/s 743 mmHg 82%
    12:00 +16°C° 0 mm 2 m/s 743 mmHg 77%
    13:00 +18°C° 0 mm 1 m/s 743 mmHg 71%
    14:00 +18°C° 0 mm 2 m/s 744 mmHg 67%
    15:00 +19°C° 0 mm 2 m/s 744 mmHg 62%
    16:00 +20°C° 0 mm 3 m/s 744 mmHg 58%
    17:00 +18°C° 0 mm 2 m/s 744 mmHg 64%
    18:00 +17°C° 0 mm 2 m/s 744 mmHg 70%
    19:00 +15°C° 0 mm 2 m/s 744 mmHg 76%
    20:00 +15°C° 0 mm 2 m/s 745 mmHg 77%
    21:00 +14°C° 0 mm 2 m/s 745 mmHg 78%
    22:00 +14°C° 0 mm 2 m/s 745 mmHg 80%
    23:00 +14°C° 0 mm 2 m/s 745 mmHg 82%

    27 Setembro, Sexta-feira

    Tempo Temperatura Precipitação Vento Pressão Humidade
    00:00 +13°C° 0 mm 2 m/s 745 mmHg 84%
    01:00 +13°C° 0 mm 2 m/s 745 mmHg 86%
    02:00 +13°C° 0 mm 1 m/s 745 mmHg 86%
    03:00 +13°C° 0 mm 1 m/s 745 mmHg 86%
    04:00 +13°C° 0 mm 1 m/s 745 mmHg 87%
    05:00 +13°C° 0 mm 1 m/s 745 mmHg 84%
    06:00 +14°C° 0 mm 1 m/s 745 mmHg 81%
    07:00 +14°C° 0 mm 1 m/s 746 mmHg 79%
    08:00 +18°C° 0 mm 1 m/s 746 mmHg 69%
    09:00 +19°C° 0 mm 2 m/s 746 mmHg 58%
    10:00 +21°C° 0 mm 2 m/s 746 mmHg 48%
    11:00 +23°C° 0 mm 2 m/s 746 mmHg 45%
    12:00 +24°C° 0 mm 2 m/s 745 mmHg 42%
    13:00 +25°C° 0 mm 3 m/s 745 mmHg 38%
    14:00 +25°C° 0 mm 2 m/s 745 mmHg 39%
    15:00 +25°C° 0 mm 2 m/s 744 mmHg 39%
    16:00 +25°C° 0 mm 2 m/s 744 mmHg 40%
    17:00 +23°C° 0 mm 2 m/s 744 mmHg 45%
    18:00 +20°C° 0 mm 2 m/s 744 mmHg 50%
    19:00 +18°C° 0 mm 2 m/s 744 mmHg 55%
    20:00 +18°C° 0 mm 2 m/s 744 mmHg 57%
    21:00 +17°C° 0 mm 2 m/s 744 mmHg 59%
    22:00 +17°C° 0 mm 2 m/s 744 mmHg 61%
    23:00 +16°C° 0 mm 2 m/s 744 mmHg 63%

    28 Setembro, Sábado

    Tempo Temperatura Precipitação Vento Pressão Humidade
    00:00 +16°C° 0 mm 3 m/s 744 mmHg 65%
    01:00 +16°C° 0 mm 3 m/s 743 mmHg 66%
    02:00 +15°C° 0 mm 2 m/s 743 mmHg 69%
    03:00 +15°C° 0 mm 2 m/s 743 mmHg 71%
    04:00 +14°C° 0 mm 2 m/s 743 mmHg 73%
    05:00 +15°C° 0 mm 2 m/s 743 mmHg 72%
    06:00 +15°C° 0 mm 2 m/s 743 mmHg 71%
    07:00 +15°C° 0 mm 2 m/s 743 mmHg 69%
    08:00 +18°C° 0 mm 2 m/s 743 mmHg 62%
    09:00 +20°C° 0 mm 2 m/s 743 mmHg 54%
    10:00 +23°C° 0 mm 2 m/s 743 mmHg 46%
    11:00 +25°C° 0 mm 3 m/s 743 mmHg 44%
    12:00 +26°C° 0 mm 3 m/s 743 mmHg 42%
    13:00 +27°C° 0 mm 4 m/s 743 mmHg 39%
    14:00 +26°C° 0 mm 4 m/s 742 mmHg 44%
    15:00 +25°C° 0 mm 4 m/s 742 mmHg 48%
    16:00 +23°C° 0 mm 4 m/s 742 mmHg 52%
    17:00 +21°C° 0 mm 3 m/s 742 mmHg 58%
    18:00 +20°C° 0 mm 3 m/s 742 mmHg 63%
    19:00 +18°C° 0 mm 2 m/s 743 mmHg 69%
    20:00 +18°C° 0 mm 1 m/s 743 mmHg 72%
    21:00 +18°C° 0 mm 1 m/s 743 mmHg 75%
    22:00 +16°C° 0 mm 1 m/s 743 mmHg 78%
    23:00 +16°C° 0 mm 1 m/s 743 mmHg 80%
    Mostrar mais